Home > Time Zones > World Clock > Weather > Latvia > Riga > Past weeks

Flag for Latvia Weather past 2 weeks in Riga, Latvia

Now
57 °F

Scattered clouds.


Feels Like: 55 °F
Forecast: 54 / 65 °F
Wind: 10 mph from Northwest

Location: Riga Airport

Current Time: Aug 28, 2014 at 11:11:08 AM

Latest Report: Aug 28, 2014 at 10:20 AM


Visibility: N/A

Pressure: 29.68 "Hg

Humidity: 94%

Dew point: 55 °F

Location of RigaLocation

Historic Weather in Riga — Graph

°F

Riga temperature yesterday

Maximum temperature yesterday: 63 °F (at 12:50 PM)
Minimum temperature yesterday: 52 °F (at 12:20 AM)
Average temperature yesterday: 56 °F

Past Weeks' High & Low Weather Summary

 TemperatureHumidityPressure
High72 °F (Aug 15, 1:20 PM)100% (Aug 14, 8:50 PM)29.92 "Hg (Aug 14, 8:50 PM)
Low46 °F (Aug 23, 5:20 AM)46% (Aug 17, 5:20 PM)29.45 "Hg (Aug 27, 9:20 AM)
Average58 °F84%29.71 "Hg
* Reported Aug 13 9:20 AM — Aug 28 9:50 AM, Riga, Weather by CustomWeather, © 2014

Note: Actual official high and low records may vary slightly from our data, if they occured in-between our weather recording intervals... More about our weather records

Advertising

Riga weather history for previous 24 hours

 ConditionsComfort  
Time TempWeatherWind HumidityBarometerVisibility
9:50 AM
Aug 28
57 °FScattered clouds.10 mph94%29.68 "HgN/A
9:20 AM57 °FSprinkles. More clouds than sun.8 mph94%29.68 "HgN/A
8:50 AM57 °FSprinkles. Broken clouds.8 mph94%29.65 "Hg6 mi
8:20 AM55 °FSprinkles. More clouds than sun.7 mph100%29.65 "Hg4 mi
7:50 AM57 °FPartly sunny.8 mph88%29.65 "HgN/A
7:20 AM57 °FPartly sunny.9 mph94%29.65 "HgN/A
6:50 AM57 °FPartly cloudy.8 mph94%29.65 "HgN/A
6:20 AM57 °FPartly cloudy.8 mph94%29.65 "HgN/A
5:50 AM57 °FPassing clouds.8 mph94%29.65 "HgN/A
5:20 AM57 °FMostly cloudy.7 mph94%29.62 "HgN/A
4:50 AM57 °FMostly cloudy.8 mph94%29.62 "HgN/A
4:20 AM57 °FMostly cloudy.7 mph94%29.62 "HgN/A
3:50 AM57 °FMostly cloudy.8 mph94%29.62 "HgN/A
3:20 AM57 °FMostly cloudy.8 mph94%29.62 "HgN/A
2:50 AM57 °FMostly cloudy.7 mph94%29.62 "HgN/A
2:20 AM57 °FMostly cloudy.6 mph94%29.62 "HgN/A
1:50 AM57 °FMostly cloudy.8 mph94%29.62 "HgN/A
1:20 AM57 °FMostly cloudy.7 mph94%29.62 "HgN/A
12:50 AM57 °FMostly cloudy.8 mph94%29.59 "HgN/A
12:20 AM57 °FMostly cloudy.7 mph94%29.62 "HgN/A
11:50 PM
Aug 27
57 °FMostly cloudy.7 mph94%29.62 "HgN/A
11:20 PM57 °FSprinkles. Mostly cloudy.6 mph88%29.62 "HgN/A
10:50 PM57 °FSprinkles. Mostly cloudy.6 mph88%29.62 "HgN/A
10:20 PM57 °FPartly cloudy.6 mph88%29.62 "HgN/A
9:50 PM57 °FPartly cloudy.7 mph88%29.62 "HgN/A
9:20 PM57 °FBroken clouds.8 mph88%29.62 "HgN/A
8:50 PM57 °FMore clouds than sun.8 mph88%29.59 "Hg6 mi
8:20 PM57 °FBroken clouds.8 mph94%29.59 "HgN/A
7:20 PM57 °FMore clouds than sun.9 mph94%29.59 "HgN/A
5:50 PM59 °FRain showers. Broken clouds.14 mph88%29.56 "Hg1 mi
5:20 PM61 °FPartly sunny.13 mph77%29.56 "HgN/A
4:50 PM63 °FScattered clouds.12 mph77%29.53 "HgN/A
4:20 PM63 °FScattered clouds.14 mph77%29.53 "HgN/A
3:50 PM63 °FScattered clouds.15 mph83%29.53 "HgN/A
3:20 PM63 °FScattered clouds.15 mph83%29.53 "HgN/A
2:50 PM61 °FScattered clouds.13 mph88%29.53 "HgN/A
2:20 PM61 °FScattered clouds.13 mph83%29.50 "HgN/A
1:20 PM63 °FScattered clouds.12 mph77%29.50 "HgN/A
12:50 PM63 °FScattered clouds.10 mph77%29.50 "HgN/A
12:20 PM61 °FBroken clouds.7 mph88%29.47 "HgN/A
11:50 AM59 °FMostly cloudy.7 mph94%29.47 "Hg6 mi
11:20 AM59 °FMostly cloudy.7 mph94%29.47 "HgN/A
Weather by CustomWeather, © 2014

See weather overviewHow to use our weather pages